Year,Month,Day,Hour,Minute,Value (Times are PST for temperature in C)
2006,09,27,00,00,15.80
2006,09,27,00,01,15.90
2006,09,27,00,02,15.90
2006,09,27,00,03,16.00
2006,09,27,00,04,16.10
2006,09,27,00,05,16.10
2006,09,27,00,06,16.10
2006,09,27,00,07,16.10
2006,09,27,00,08,16.10
2006,09,27,00,09,16.10
2006,09,27,00,10,16.10
2006,09,27,00,11,16.10
2006,09,27,00,12,15.90
2006,09,27,00,13,15.90
2006,09,27,00,14,15.80
2006,09,27,00,15,15.80
2006,09,27,00,16,15.80
2006,09,27,00,17,15.70
2006,09,27,00,18,15.60
2006,09,27,00,19,15.60
2006,09,27,00,20,15.50
2006,09,27,00,21,15.40
2006,09,27,00,22,15.30
2006,09,27,00,23,15.30
2006,09,27,00,24,15.20
2006,09,27,00,25,15.10
2006,09,27,00,26,15.00
2006,09,27,00,27,14.90
2006,09,27,00,28,14.90
2006,09,27,00,29,14.80
2006,09,27,00,30,14.80
2006,09,27,00,31,14.70
2006,09,27,00,32,14.60
2006,09,27,00,33,14.60
2006,09,27,00,34,14.60
2006,09,27,00,35,14.50
2006,09,27,00,36,14.50
2006,09,27,00,37,14.40
2006,09,27,00,38,14.40
2006,09,27,00,39,14.40
2006,09,27,00,40,14.30
2006,09,27,00,41,14.30
2006,09,27,00,42,14.30
2006,09,27,00,43,14.30
2006,09,27,00,44,14.20
2006,09,27,00,45,14.20
2006,09,27,00,46,14.20
2006,09,27,00,47,14.20
2006,09,27,00,48,14.20
2006,09,27,00,49,14.20
2006,09,27,00,50,14.20
2006,09,27,00,51,14.20
2006,09,27,00,52,14.20
2006,09,27,00,53,14.20
2006,09,27,00,54,14.20
2006,09,27,00,55,14.20
2006,09,27,00,56,14.10
2006,09,27,00,57,14.10
2006,09,27,00,58,14.10
2006,09,27,00,59,14.10
2006,09,27,01,00,14.10
2006,09,27,01,01,14.10
2006,09,27,01,02,14.10
2006,09,27,01,03,14.10
2006,09,27,01,04,14.10
2006,09,27,01,05,14.10
2006,09,27,01,06,14.10
2006,09,27,01,07,14.10
2006,09,27,01,08,14.20
2006,09,27,01,09,14.20
2006,09,27,01,10,14.20
2006,09,27,01,11,14.20
2006,09,27,01,12,14.20
2006,09,27,01,13,14.20
2006,09,27,01,14,14.20
2006,09,27,01,15,14.30
2006,09,27,01,16,14.40
2006,09,27,01,17,14.40
2006,09,27,01,18,14.40
2006,09,27,01,19,14.40
2006,09,27,01,20,14.40
2006,09,27,01,21,14.40
2006,09,27,01,22,14.40
2006,09,27,01,23,14.40
2006,09,27,01,24,14.40
2006,09,27,01,25,14.40
2006,09,27,01,26,14.40
2006,09,27,01,27,14.40
2006,09,27,01,28,14.30
2006,09,27,01,29,14.30
2006,09,27,01,30,14.20
2006,09,27,01,31,14.20
2006,09,27,01,32,14.20
2006,09,27,01,33,14.20
2006,09,27,01,34,14.20
2006,09,27,01,35,14.20
2006,09,27,01,36,14.20
2006,09,27,01,37,14.20
2006,09,27,01,38,14.20
2006,09,27,01,39,14.20
2006,09,27,01,40,14.20
2006,09,27,01,41,14.20
2006,09,27,01,42,14.20
2006,09,27,01,43,14.20
2006,09,27,01,44,14.20
2006,09,27,01,45,14.20
2006,09,27,01,46,14.20
2006,09,27,01,47,14.20
2006,09,27,01,48,14.10
2006,09,27,01,49,14.10
2006,09,27,01,50,14.10
2006,09,27,01,51,14.10
2006,09,27,01,52,14.10
2006,09,27,01,53,14.00
2006,09,27,01,54,14.00
2006,09,27,01,55,14.00
2006,09,27,01,56,14.00
2006,09,27,01,57,14.00
2006,09,27,01,58,14.00
2006,09,27,01,59,14.00
2006,09,27,02,00,14.00
2006,09,27,02,01,13.90
2006,09,27,02,02,13.90
2006,09,27,02,03,13.90
2006,09,27,02,04,13.90
2006,09,27,02,05,13.80
2006,09,27,02,06,13.80
2006,09,27,02,07,13.80
2006,09,27,02,08,13.80
2006,09,27,02,09,13.80
2006,09,27,02,10,13.80
2006,09,27,02,11,13.70
2006,09,27,02,12,13.70
2006,09,27,02,13,13.70
2006,09,27,02,14,13.70
2006,09,27,02,15,13.70
2006,09,27,02,16,13.70
2006,09,27,02,17,13.70
2006,09,27,02,18,13.70
2006,09,27,02,19,13.70
2006,09,27,02,20,13.80
2006,09,27,02,21,13.80
2006,09,27,02,22,13.80
2006,09,27,02,23,13.90
2006,09,27,02,24,13.90
2006,09,27,02,25,13.90
2006,09,27,02,26,13.90
2006,09,27,02,27,13.90
2006,09,27,02,28,13.90
2006,09,27,02,29,13.90
2006,09,27,02,30,13.80
2006,09,27,02,31,13.80
2006,09,27,02,32,13.80
2006,09,27,02,33,13.80
2006,09,27,02,34,13.80
2006,09,27,02,35,13.80
2006,09,27,02,36,13.70
2006,09,27,02,37,13.70
2006,09,27,02,38,13.70
2006,09,27,02,39,13.70
2006,09,27,02,40,13.70
2006,09,27,02,41,13.70
2006,09,27,02,42,13.70
2006,09,27,02,43,13.70
2006,09,27,02,44,13.70
2006,09,27,02,45,13.70
2006,09,27,02,46,13.70
2006,09,27,02,47,13.70
2006,09,27,02,48,13.60
2006,09,27,02,49,13.60
2006,09,27,02,50,13.60
2006,09,27,02,51,13.60
2006,09,27,02,52,13.60
2006,09,27,02,53,13.60
2006,09,27,02,54,13.60
2006,09,27,02,55,13.70
2006,09,27,02,56,13.70
2006,09,27,02,57,13.70
2006,09,27,02,58,13.70
2006,09,27,02,59,13.70
2006,09,27,03,00,13.70
2006,09,27,03,01,13.70
2006,09,27,03,02,13.70
2006,09,27,03,03,13.70
2006,09,27,03,04,13.60
2006,09,27,03,05,13.60
2006,09,27,03,06,13.60
2006,09,27,03,07,13.50
2006,09,27,03,08,13.50
2006,09,27,03,09,13.50
2006,09,27,03,10,13.50
2006,09,27,03,11,13.40
2006,09,27,03,12,13.40
2006,09,27,03,13,13.50
2006,09,27,03,14,13.50
2006,09,27,03,15,13.50
2006,09,27,03,16,13.60
2006,09,27,03,17,13.60
2006,09,27,03,18,13.60
2006,09,27,03,19,13.60
2006,09,27,03,20,13.60
2006,09,27,03,21,13.60
2006,09,27,03,22,13.60
2006,09,27,03,23,13.60
2006,09,27,03,24,13.50
2006,09,27,03,25,13.50
2006,09,27,03,26,13.50
2006,09,27,03,27,13.50
2006,09,27,03,28,13.40
2006,09,27,03,29,13.40
2006,09,27,03,30,13.30
2006,09,27,03,31,13.30
2006,09,27,03,32,13.30
2006,09,27,03,33,13.30
2006,09,27,03,34,13.30
2006,09,27,03,35,13.30
2006,09,27,03,36,13.30
2006,09,27,03,37,13.30
2006,09,27,03,38,13.30
2006,09,27,03,39,13.30
2006,09,27,03,40,13.30
2006,09,27,03,41,13.30
2006,09,27,03,42,13.30
2006,09,27,03,43,13.30
2006,09,27,03,44,13.30
2006,09,27,03,45,13.30
2006,09,27,03,46,13.30
2006,09,27,03,47,13.30
2006,09,27,03,48,13.30
2006,09,27,03,49,13.30
2006,09,27,03,50,13.30
2006,09,27,03,51,13.30
2006,09,27,03,52,13.30
2006,09,27,03,53,13.30
2006,09,27,03,54,13.30
2006,09,27,03,55,13.30
2006,09,27,03,56,13.30
2006,09,27,03,57,13.30
2006,09,27,03,58,13.30
2006,09,27,03,59,13.40
2006,09,27,04,00,13.40
2006,09,27,04,01,13.40
2006,09,27,04,02,13.40
2006,09,27,04,03,13.40
2006,09,27,04,04,13.40
2006,09,27,04,05,13.40
2006,09,27,04,06,13.40
2006,09,27,04,07,13.30
2006,09,27,04,08,13.40
2006,09,27,04,09,13.40
2006,09,27,04,10,13.40
2006,09,27,04,11,13.40
2006,09,27,04,12,13.40
2006,09,27,04,13,13.40
2006,09,27,04,14,13.40
2006,09,27,04,15,13.30
2006,09,27,04,16,13.30
2006,09,27,04,17,13.30
2006,09,27,04,18,13.30
2006,09,27,04,19,13.30
2006,09,27,04,20,13.30
2006,09,27,04,21,13.30
2006,09,27,04,22,13.30
2006,09,27,04,23,13.30
2006,09,27,04,24,13.30
2006,09,27,04,25,13.30
2006,09,27,04,26,13.30
2006,09,27,04,27,13.30
2006,09,27,04,28,13.20
2006,09,27,04,29,13.20
2006,09,27,04,30,13.20
2006,09,27,04,31,13.20
2006,09,27,04,32,13.10
2006,09,27,04,33,13.10
2006,09,27,04,34,13.10
2006,09,27,04,35,13.10
2006,09,27,04,36,13.10
2006,09,27,04,37,13.10
2006,09,27,04,38,13.10
2006,09,27,04,39,13.10
2006,09,27,04,40,13.10
2006,09,27,04,41,13.10
2006,09,27,04,42,13.10
2006,09,27,04,43,13.20
2006,09,27,04,44,13.20
2006,09,27,04,45,13.20
2006,09,27,04,46,13.20
2006,09,27,04,47,13.20
2006,09,27,04,48,13.20
2006,09,27,04,49,13.20
2006,09,27,04,50,13.20
2006,09,27,04,51,13.20
2006,09,27,04,52,13.20
2006,09,27,04,53,13.20
2006,09,27,04,54,13.20
2006,09,27,04,55,13.20
2006,09,27,04,56,13.10
2006,09,27,04,57,13.10
2006,09,27,04,58,13.10
2006,09,27,04,59,13.10
2006,09,27,05,00,13.10
2006,09,27,05,01,13.10
2006,09,27,05,02,13.10
2006,09,27,05,03,13.10
2006,09,27,05,04,13.10
2006,09,27,05,05,13.10
2006,09,27,05,06,13.20
2006,09,27,05,07,13.20
2006,09,27,05,08,13.20
2006,09,27,05,09,13.20
2006,09,27,05,10,13.20
2006,09,27,05,11,13.20
2006,09,27,05,12,13.20
2006,09,27,05,13,13.20
2006,09,27,05,14,13.20
2006,09,27,05,15,13.20
2006,09,27,05,16,13.20
2006,09,27,05,17,13.10
2006,09,27,05,18,13.10
2006,09,27,05,19,13.10
2006,09,27,05,20,13.10
2006,09,27,05,21,13.10
2006,09,27,05,22,13.20
2006,09,27,05,23,13.20
2006,09,27,05,24,13.10
2006,09,27,05,25,13.10
2006,09,27,05,26,13.10
2006,09,27,05,27,13.10
2006,09,27,05,28,13.00
2006,09,27,05,29,13.00
2006,09,27,05,30,13.00
2006,09,27,05,31,13.00
2006,09,27,05,32,12.90
2006,09,27,05,33,12.90
2006,09,27,05,34,12.80
2006,09,27,05,35,12.80
2006,09,27,05,36,12.80
2006,09,27,05,37,12.70
2006,09,27,05,38,12.70
2006,09,27,05,39,12.70
2006,09,27,05,40,12.60
2006,09,27,05,41,12.60
2006,09,27,05,42,12.60
2006,09,27,05,43,12.50
2006,09,27,05,44,12.50
2006,09,27,05,45,12.60
2006,09,27,05,46,12.60
2006,09,27,05,47,12.60
2006,09,27,05,48,12.60
2006,09,27,05,49,12.70
2006,09,27,05,50,12.70
2006,09,27,05,51,12.80
2006,09,27,05,52,12.80
2006,09,27,05,53,12.90
2006,09,27,05,54,12.90
2006,09,27,05,55,13.00
2006,09,27,05,56,13.00
2006,09,27,05,57,13.00
2006,09,27,05,58,13.00
2006,09,27,05,59,13.10
2006,09,27,06,00,13.10
2006,09,27,06,01,13.20
2006,09,27,06,02,13.20
2006,09,27,06,03,13.30
2006,09,27,06,04,13.30
2006,09,27,06,05,13.30
2006,09,27,06,06,13.30
2006,09,27,06,07,13.30
2006,09,27,06,08,13.30
2006,09,27,06,09,13.30
2006,09,27,06,10,13.30
2006,09,27,06,11,13.30
2006,09,27,06,12,13.30
2006,09,27,06,13,13.30
2006,09,27,06,14,13.20
2006,09,27,06,15,13.20
2006,09,27,06,16,13.10
2006,09,27,06,17,13.10
2006,09,27,06,18,13.10
2006,09,27,06,19,13.10
2006,09,27,06,20,13.00
2006,09,27,06,21,13.00
2006,09,27,06,22,13.00
2006,09,27,06,23,13.00
2006,09,27,06,24,12.90
2006,09,27,06,25,12.90
2006,09,27,06,26,12.90
2006,09,27,06,27,12.80
2006,09,27,06,28,12.90
2006,09,27,06,29,12.90
2006,09,27,06,30,12.90
2006,09,27,06,31,12.90
2006,09,27,06,32,12.90
2006,09,27,06,33,12.80
2006,09,27,06,34,12.80
2006,09,27,06,35,12.80
2006,09,27,06,36,12.80
2006,09,27,06,37,12.80
2006,09,27,06,38,12.80
2006,09,27,06,39,12.80
2006,09,27,06,40,12.80
2006,09,27,06,41,12.80
2006,09,27,06,42,12.80
2006,09,27,06,43,12.70
2006,09,27,06,44,12.70
2006,09,27,06,45,12.70
2006,09,27,06,46,12.70
2006,09,27,06,47,12.70
2006,09,27,06,48,12.70
2006,09,27,06,49,12.60
2006,09,27,06,50,12.60
2006,09,27,06,51,12.60
2006,09,27,06,52,12.60
2006,09,27,06,53,12.60
2006,09,27,06,54,12.60
2006,09,27,06,55,12.60
2006,09,27,06,56,12.70
2006,09,27,06,57,12.70
2006,09,27,06,58,12.70
2006,09,27,06,59,12.80
2006,09,27,07,00,12.80
2006,09,27,07,01,12.80
2006,09,27,07,02,12.90
2006,09,27,07,03,12.90
2006,09,27,07,04,12.90
2006,09,27,07,05,13.00
2006,09,27,07,06,13.00
2006,09,27,07,07,13.10
2006,09,27,07,08,13.10
2006,09,27,07,09,13.10
2006,09,27,07,10,13.10
2006,09,27,07,11,13.00
2006,09,27,07,12,13.00
2006,09,27,07,13,13.00
2006,09,27,07,14,12.90
2006,09,27,07,15,12.90
2006,09,27,07,16,13.00
2006,09,27,07,17,13.00
2006,09,27,07,18,13.00
2006,09,27,07,19,13.10
2006,09,27,07,20,13.10
2006,09,27,07,21,13.20
2006,09,27,07,22,13.20
2006,09,27,07,23,13.10
2006,09,27,07,24,13.10
2006,09,27,07,25,13.10
2006,09,27,07,26,13.10
2006,09,27,07,27,13.10
2006,09,27,07,28,13.00
2006,09,27,07,29,12.90
2006,09,27,07,30,12.90
2006,09,27,07,31,12.90
2006,09,27,07,32,12.80
2006,09,27,07,33,12.80
2006,09,27,07,34,12.90
2006,09,27,07,35,12.90
2006,09,27,07,36,12.90
2006,09,27,07,37,12.90
2006,09,27,07,38,12.90
2006,09,27,07,39,12.90
2006,09,27,07,40,13.00
2006,09,27,07,41,13.00
2006,09,27,07,42,13.00
2006,09,27,07,43,13.00
2006,09,27,07,44,13.00
2006,09,27,07,45,13.10
2006,09,27,07,46,13.10
2006,09,27,07,47,13.10
2006,09,27,07,48,13.20
2006,09,27,07,49,13.20
2006,09,27,07,50,13.30
2006,09,27,07,51,13.30
2006,09,27,07,52,13.40
2006,09,27,07,53,13.40
2006,09,27,07,54,13.40
2006,09,27,07,55,13.40
2006,09,27,07,56,13.40
2006,09,27,07,57,13.50
2006,09,27,07,58,13.50
2006,09,27,07,59,13.50
2006,09,27,08,00,13.60
2006,09,27,08,01,13.60
2006,09,27,08,02,13.60
2006,09,27,08,03,13.70
2006,09,27,08,04,13.70
2006,09,27,08,05,13.70
2006,09,27,08,06,13.70
2006,09,27,08,07,13.70
2006,09,27,08,08,13.80
2006,09,27,08,09,13.90
2006,09,27,08,10,13.90
2006,09,27,08,11,13.90
2006,09,27,08,12,14.00
2006,09,27,08,13,14.10
2006,09,27,08,14,14.20
2006,09,27,08,15,14.30
2006,09,27,08,16,14.40
2006,09,27,08,17,14.60
2006,09,27,08,18,14.60
2006,09,27,08,19,14.70
2006,09,27,08,20,14.80
2006,09,27,08,21,14.80
2006,09,27,08,22,14.90
2006,09,27,08,23,14.90
2006,09,27,08,24,15.00
2006,09,27,08,25,15.00
2006,09,27,08,26,15.00
2006,09,27,08,27,15.10
2006,09,27,08,28,15.10
2006,09,27,08,29,15.20
2006,09,27,08,30,15.30
2006,09,27,08,31,15.30
2006,09,27,08,32,15.40
2006,09,27,08,33,15.40
2006,09,27,08,34,15.50
2006,09,27,08,35,15.50
2006,09,27,08,36,15.60
2006,09,27,08,37,15.60
2006,09,27,08,38,15.70
2006,09,27,08,39,15.70
2006,09,27,08,40,15.80
2006,09,27,08,41,15.80
2006,09,27,08,42,15.90
2006,09,27,08,43,16.10
2006,09,27,08,44,16.20
2006,09,27,08,45,16.30
2006,09,27,08,46,16.40
2006,09,27,08,47,16.50
2006,09,27,08,48,16.60
2006,09,27,08,49,16.70
2006,09,27,08,50,16.70
2006,09,27,08,51,16.70
2006,09,27,08,52,16.70
2006,09,27,08,53,16.90
2006,09,27,08,54,17.00
2006,09,27,08,55,17.00
2006,09,27,08,56,17.00
2006,09,27,08,57,17.00
2006,09,27,08,58,17.00
2006,09,27,08,59,17.10
2006,09,27,09,00,17.10
2006,09,27,09,01,17.20
2006,09,27,09,02,17.20
2006,09,27,09,03,17.30
2006,09,27,09,04,17.30
2006,09,27,09,05,17.20
2006,09,27,09,06,17.20
2006,09,27,09,07,17.20
2006,09,27,09,08,17.20
2006,09,27,09,09,17.10
2006,09,27,09,10,17.10
2006,09,27,09,11,17.10
2006,09,27,09,12,17.20
2006,09,27,09,13,17.20
2006,09,27,09,14,17.30
2006,09,27,09,15,17.30
2006,09,27,09,16,17.30
2006,09,27,09,17,17.30
2006,09,27,09,18,17.30
2006,09,27,09,19,17.40
2006,09,27,09,20,17.50
2006,09,27,09,21,17.60
2006,09,27,09,22,17.60
2006,09,27,09,23,17.70
2006,09,27,09,24,17.70
2006,09,27,09,25,17.70
2006,09,27,09,26,17.80
2006,09,27,09,27,17.80
2006,09,27,09,28,17.90
2006,09,27,09,29,17.90
2006,09,27,09,30,17.90
2006,09,27,09,31,18.00
2006,09,27,09,32,18.10
2006,09,27,09,33,18.20
2006,09,27,09,34,18.20
2006,09,27,09,35,18.30
2006,09,27,09,36,18.30
2006,09,27,09,37,18.30
2006,09,27,09,38,18.30
2006,09,27,09,39,18.40
2006,09,27,09,40,18.50
2006,09,27,09,41,18.60
2006,09,27,09,42,18.60
2006,09,27,09,43,18.70
2006,09,27,09,44,18.80
2006,09,27,09,45,18.80
2006,09,27,09,46,18.80
2006,09,27,09,47,18.70
2006,09,27,09,48,18.30
2006,09,27,09,49,17.90
2006,09,27,09,50,17.40
2006,09,27,09,51,17.00
2006,09,27,09,52,16.70
2006,09,27,09,53,16.40
2006,09,27,09,54,16.20
2006,09,27,09,55,15.90
2006,09,27,09,56,15.80
2006,09,27,09,57,15.60
2006,09,27,09,58,15.50
2006,09,27,09,59,15.40
2006,09,27,10,00,15.30
2006,09,27,10,01,15.10
2006,09,27,10,02,14.90
2006,09,27,10,03,14.80
2006,09,27,10,04,14.80
2006,09,27,10,05,14.80
2006,09,27,10,06,14.70
2006,09,27,10,07,14.70
2006,09,27,10,08,14.70
2006,09,27,10,09,14.60
2006,09,27,10,10,14.50
2006,09,27,10,11,14.50
2006,09,27,10,12,14.50
2006,09,27,10,13,14.50
2006,09,27,10,14,14.50
2006,09,27,10,15,14.60
2006,09,27,10,16,14.50
2006,09,27,10,17,14.50
2006,09,27,10,18,14.60
2006,09,27,10,19,14.60
2006,09,27,10,20,14.60
2006,09,27,10,21,14.60
2006,09,27,10,22,14.70
2006,09,27,10,23,14.80
2006,09,27,10,24,14.80
2006,09,27,10,25,14.80
2006,09,27,10,26,14.80
2006,09,27,10,27,14.80
2006,09,27,10,28,14.80
2006,09,27,10,29,14.80
2006,09,27,10,30,14.80
2006,09,27,10,31,14.80
2006,09,27,10,32,14.80
2006,09,27,10,33,14.80
2006,09,27,10,34,14.80
2006,09,27,10,35,14.80
2006,09,27,10,36,14.80
2006,09,27,10,37,14.80
2006,09,27,10,38,14.80
2006,09,27,10,39,14.80
2006,09,27,10,40,14.80
2006,09,27,10,41,14.80
2006,09,27,10,42,14.80
2006,09,27,10,43,14.80
2006,09,27,10,44,14.80
2006,09,27,10,45,14.80
2006,09,27,10,46,14.90
2006,09,27,10,47,15.00
2006,09,27,10,48,15.00
2006,09,27,10,49,15.10
2006,09,27,10,50,15.10
2006,09,27,10,51,15.20
2006,09,27,10,52,15.30
2006,09,27,10,53,15.40
2006,09,27,10,54,15.40
2006,09,27,10,55,15.30
2006,09,27,10,56,15.30
2006,09,27,10,57,15.30
2006,09,27,10,58,15.30
2006,09,27,10,59,15.40
2006,09,27,11,00,15.40
2006,09,27,11,01,15.50
2006,09,27,11,02,15.60
2006,09,27,11,03,15.60
2006,09,27,11,04,15.60
2006,09,27,11,05,15.70
2006,09,27,11,06,15.70
2006,09,27,11,07,15.80
2006,09,27,11,08,15.80
2006,09,27,11,09,15.80
2006,09,27,11,10,15.80
2006,09,27,11,11,15.90
2006,09,27,11,12,15.90
2006,09,27,11,13,15.90
2006,09,27,11,14,15.90
2006,09,27,11,15,15.80
2006,09,27,11,16,15.80
2006,09,27,11,17,15.80
2006,09,27,11,18,15.90
2006,09,27,11,19,15.90
2006,09,27,11,20,16.00
2006,09,27,11,21,16.10
2006,09,27,11,22,16.10
2006,09,27,11,23,16.10
2006,09,27,11,24,16.20
2006,09,27,11,25,16.20
2006,09,27,11,26,16.20
2006,09,27,11,27,16.20
2006,09,27,11,28,16.20
2006,09,27,11,29,16.10
2006,09,27,11,30,16.10
2006,09,27,11,31,16.10
2006,09,27,11,32,16.20
2006,09,27,11,33,16.20
2006,09,27,11,34,16.20
2006,09,27,11,35,16.20
2006,09,27,11,36,16.20
2006,09,27,11,37,16.10
2006,09,27,11,38,16.10
2006,09,27,11,39,16.10
2006,09,27,11,40,16.10
2006,09,27,11,41,16.10
2006,09,27,11,42,16.00
2006,09,27,11,43,15.90
2006,09,27,11,44,15.90
2006,09,27,11,45,15.90
2006,09,27,11,46,15.80
2006,09,27,11,47,15.90
2006,09,27,11,48,16.00
2006,09,27,11,49,16.10
2006,09,27,11,50,16.20
2006,09,27,11,51,16.20
2006,09,27,11,52,16.30
2006,09,27,11,53,16.30
2006,09,27,11,54,16.30
2006,09,27,11,55,16.40
2006,09,27,11,56,16.50
2006,09,27,11,57,16.60
2006,09,27,11,58,16.70
2006,09,27,11,59,16.70
2006,09,27,12,00,16.70
2006,09,27,12,01,16.70
2006,09,27,12,02,16.70
2006,09,27,12,03,16.70
2006,09,27,12,04,16.80
2006,09,27,12,05,16.80
2006,09,27,12,06,16.70
2006,09,27,12,07,16.60
2006,09,27,12,08,16.40
2006,09,27,12,09,16.50
2006,09,27,12,10,16.60
2006,09,27,12,11,16.60
2006,09,27,12,12,16.60
2006,09,27,12,13,16.70
2006,09,27,12,14,16.60
2006,09,27,12,15,16.60
2006,09,27,12,16,16.60
2006,09,27,12,17,16.70
2006,09,27,12,18,16.70
2006,09,27,12,19,16.70
2006,09,27,12,20,16.70
2006,09,27,12,21,16.80
2006,09,27,12,22,16.90
2006,09,27,12,23,16.90
2006,09,27,12,24,17.00
2006,09,27,12,25,17.00
2006,09,27,12,26,17.10
2006,09,27,12,27,17.20
2006,09,27,12,28,17.30
2006,09,27,12,29,17.50
2006,09,27,12,30,17.60
2006,09,27,12,31,17.60
2006,09,27,12,32,17.70
2006,09,27,12,33,17.80
2006,09,27,12,34,17.80
2006,09,27,12,35,17.80
2006,09,27,12,36,17.70
2006,09,27,12,37,17.60
2006,09,27,12,38,17.50
2006,09,27,12,39,17.50
2006,09,27,12,40,17.40
2006,09,27,12,41,17.30
2006,09,27,12,42,17.20
2006,09,27,12,43,17.00
2006,09,27,12,44,17.00
2006,09,27,12,45,16.90
2006,09,27,12,46,16.80
2006,09,27,12,47,16.70
2006,09,27,12,48,16.70
2006,09,27,12,49,16.60
2006,09,27,12,50,16.60
2006,09,27,12,51,16.60
2006,09,27,12,52,16.60
2006,09,27,12,53,16.50
2006,09,27,12,54,16.40
2006,09,27,12,55,16.40
2006,09,27,12,56,16.40
2006,09,27,12,57,16.40
2006,09,27,12,58,16.40
2006,09,27,12,59,16.30
2006,09,27,13,00,16.20
2006,09,27,13,01,16.20
2006,09,27,13,02,16.20
2006,09,27,13,03,16.20
2006,09,27,13,04,16.20
2006,09,27,13,05,16.20
2006,09,27,13,06,16.20
2006,09,27,13,07,16.30
2006,09,27,13,08,16.40
2006,09,27,13,09,16.40
2006,09,27,13,10,16.40
2006,09,27,13,11,16.40
2006,09,27,13,12,16.50
2006,09,27,13,13,16.60
2006,09,27,13,14,16.60
2006,09,27,13,15,16.70
2006,09,27,13,16,16.70
2006,09,27,13,17,16.90
2006,09,27,13,18,17.00
2006,09,27,13,19,17.00
2006,09,27,13,20,17.10
2006,09,27,13,21,17.20
2006,09,27,13,22,17.20
2006,09,27,13,23,17.20
2006,09,27,13,24,17.20
2006,09,27,13,25,17.30
2006,09,27,13,26,17.30
2006,09,27,13,27,17.30
2006,09,27,13,28,17.30
2006,09,27,13,29,17.30
2006,09,27,13,30,17.30
2006,09,27,13,31,17.30
2006,09,27,13,32,17.20
2006,09,27,13,33,17.10
2006,09,27,13,34,17.10
2006,09,27,13,35,17.00
2006,09,27,13,36,17.10
2006,09,27,13,37,17.10
2006,09,27,13,38,17.10
2006,09,27,13,39,17.00
2006,09,27,13,40,17.00
2006,09,27,13,41,17.00
2006,09,27,13,42,17.00
2006,09,27,13,43,17.00
2006,09,27,13,44,17.00
2006,09,27,13,45,17.00
2006,09,27,13,46,17.00
2006,09,27,13,47,16.90
2006,09,27,13,48,16.90
2006,09,27,13,49,16.90
2006,09,27,13,50,16.90
2006,09,27,13,51,16.90
2006,09,27,13,52,16.90
2006,09,27,13,53,16.90
2006,09,27,13,54,16.90
2006,09,27,13,55,16.90
2006,09,27,13,56,16.90
2006,09,27,13,57,16.90
2006,09,27,13,58,17.00
2006,09,27,13,59,17.10
2006,09,27,14,00,17.10
2006,09,27,14,01,17.10
2006,09,27,14,02,17.10
2006,09,27,14,03,17.10
2006,09,27,14,04,17.10
2006,09,27,14,05,17.10
2006,09,27,14,06,17.10
2006,09,27,14,07,17.40
2006,09,27,14,08,17.50
2006,09,27,14,09,17.60
2006,09,27,14,10,17.70
2006,09,27,14,11,17.70
2006,09,27,14,12,17.70
2006,09,27,14,13,17.70
2006,09,27,14,14,17.70
2006,09,27,14,15,17.80
2006,09,27,14,16,17.90
2006,09,27,14,17,17.80
2006,09,27,14,18,17.70
2006,09,27,14,19,17.70
2006,09,27,14,20,17.70
2006,09,27,14,21,17.60
2006,09,27,14,22,17.60
2006,09,27,14,23,17.60
2006,09,27,14,24,17.60
2006,09,27,14,25,17.70
2006,09,27,14,26,17.70
2006,09,27,14,27,17.80
2006,09,27,14,28,17.90
2006,09,27,14,29,17.90
2006,09,27,14,30,17.90
2006,09,27,14,31,17.90
2006,09,27,14,32,17.80
2006,09,27,14,33,17.70
2006,09,27,14,34,17.70
2006,09,27,14,35,17.80
2006,09,27,14,36,17.90
2006,09,27,14,37,17.90
2006,09,27,14,38,18.00
2006,09,27,14,39,18.10
2006,09,27,14,40,18.20
2006,09,27,14,41,18.30
2006,09,27,14,42,18.40
2006,09,27,14,43,18.50
2006,09,27,14,44,18.50
2006,09,27,14,45,18.60
2006,09,27,14,46,18.60
2006,09,27,14,47,18.70
2006,09,27,14,48,18.70
2006,09,27,14,49,18.80
2006,09,27,14,50,18.90
2006,09,27,14,51,18.90
2006,09,27,14,52,18.90
2006,09,27,14,53,18.80
2006,09,27,14,54,18.60
2006,09,27,14,55,18.50
2006,09,27,14,56,18.40
2006,09,27,14,57,18.20
2006,09,27,14,58,18.20
2006,09,27,14,59,18.20
2006,09,27,15,00,18.20
2006,09,27,15,01,18.30
2006,09,27,15,02,18.30
2006,09,27,15,03,18.40
2006,09,27,15,04,18.40
2006,09,27,15,05,18.50
2006,09,27,15,06,18.60
2006,09,27,15,07,18.60
2006,09,27,15,08,18.60
2006,09,27,15,09,18.80
2006,09,27,15,10,18.90
2006,09,27,15,11,18.90
2006,09,27,15,12,18.90
2006,09,27,15,13,19.00
2006,09,27,15,14,19.10
2006,09,27,15,15,19.10
2006,09,27,15,16,19.10
2006,09,27,15,17,19.10
2006,09,27,15,18,19.20
2006,09,27,15,19,19.30
2006,09,27,15,20,19.40
2006,09,27,15,21,19.40
2006,09,27,15,22,19.50
2006,09,27,15,23,19.50
2006,09,27,15,24,19.60
2006,09,27,15,25,19.70
2006,09,27,15,26,19.80
2006,09,27,15,27,19.90
2006,09,27,15,28,20.00
2006,09,27,15,29,20.10
2006,09,27,15,30,20.20
2006,09,27,15,31,20.10
2006,09,27,15,32,20.00
2006,09,27,15,33,19.90
2006,09,27,15,34,19.90
2006,09,27,15,35,19.80
2006,09,27,15,36,19.60
2006,09,27,15,37,19.40
2006,09,27,15,38,19.40
2006,09,27,15,39,19.40
2006,09,27,15,40,19.30
2006,09,27,15,41,19.30
2006,09,27,15,42,19.30
2006,09,27,15,43,19.10
2006,09,27,15,44,19.10
2006,09,27,15,45,19.10
2006,09,27,15,46,19.00
2006,09,27,15,47,18.90
2006,09,27,15,48,18.90
2006,09,27,15,49,18.90
2006,09,27,15,50,18.90
2006,09,27,15,51,18.90
2006,09,27,15,52,19.00
2006,09,27,15,53,19.10
2006,09,27,15,54,19.10
2006,09,27,15,55,19.10
2006,09,27,15,56,19.10
2006,09,27,15,57,19.20
2006,09,27,15,58,19.40
2006,09,27,15,59,19.50
2006,09,27,16,00,19.50
2006,09,27,16,01,19.50
2006,09,27,16,02,19.40
2006,09,27,16,03,19.40
2006,09,27,16,04,19.40
2006,09,27,16,05,19.40
2006,09,27,16,06,19.50
2006,09,27,16,07,19.50
2006,09,27,16,08,19.50
2006,09,27,16,09,19.60
2006,09,27,16,10,19.50
2006,09,27,16,11,19.40
2006,09,27,16,12,19.40
2006,09,27,16,13,19.30
2006,09,27,16,14,19.30
2006,09,27,16,15,19.30
2006,09,27,16,16,19.40
2006,09,27,16,17,19.50
2006,09,27,16,18,19.50
2006,09,27,16,19,19.60
2006,09,27,16,20,19.60
2006,09,27,16,21,19.60
2006,09,27,16,22,19.60
2006,09,27,16,23,19.70
2006,09,27,16,24,19.70
2006,09,27,16,25,19.70
2006,09,27,16,26,19.70
2006,09,27,16,27,19.80
2006,09,27,16,28,19.80
2006,09,27,16,29,19.90
2006,09,27,16,30,19.90
2006,09,27,16,31,19.90
2006,09,27,16,32,19.90
2006,09,27,16,33,19.90
2006,09,27,16,34,19.90
2006,09,27,16,35,19.90
2006,09,27,16,36,19.90
2006,09,27,16,37,19.90
2006,09,27,16,38,19.90
2006,09,27,16,39,20.00
2006,09,27,16,40,20.00
2006,09,27,16,41,19.90
2006,09,27,16,42,19.90
2006,09,27,16,43,19.90
2006,09,27,16,44,19.90
2006,09,27,16,45,19.80
2006,09,27,16,46,19.70
2006,09,27,16,47,19.60
2006,09,27,16,48,19.60
2006,09,27,16,49,19.60
2006,09,27,16,50,19.70
2006,09,27,16,51,19.80
2006,09,27,16,52,19.80
2006,09,27,16,53,19.90
2006,09,27,16,54,19.90
2006,09,27,16,55,19.90
2006,09,27,16,56,19.90
2006,09,27,16,57,19.90
2006,09,27,16,58,19.90
2006,09,27,16,59,19.90
2006,09,27,17,00,19.90
2006,09,27,17,01,19.90
2006,09,27,17,02,19.90
2006,09,27,17,03,19.80
2006,09,27,17,04,19.80
2006,09,27,17,05,19.80
2006,09,27,17,06,19.90
2006,09,27,17,07,19.90
2006,09,27,17,08,19.90
2006,09,27,17,09,20.00
2006,09,27,17,10,20.20
2006,09,27,17,11,20.20
2006,09,27,17,12,20.30
2006,09,27,17,13,20.30
2006,09,27,17,14,20.50
2006,09,27,17,15,20.50
2006,09,27,17,16,20.50
2006,09,27,17,17,20.50
2006,09,27,17,18,20.50
2006,09,27,17,19,20.40